Weather History for West Palm Beach, FL

Change the Weather History Date:

Tuesday, January 1, 2013

  Actual Average Record
Temperature  
Mean Temperature 71 °F 66 °F  
Max Temperature 80 °F 75 °F 85 °F (1996)
Min Temperature 62 °F 57 °F 35 °F (1918)
Degree Days  
Heating Degree Days 0 3  
Month to date heating degree days 0 3  
Since 1 July heating degree days 43 74  
Cooling Degree Days 6 4  
Month to date cooling degree days 6 4  
Year to date cooling degree days 6 4  
Growing Degree Days 21 (Base 50)    
Moisture  
Dew Point 58 °F    
Average Humidity 64    
Maximum Humidity 78    
Minimum Humidity 50    
Precipitation  
Precipitation 0.00 in 0.11 in 1.64 in (1909)
Month to date precipitation 0.00 0.11  
Year to date precipitation 0.00 0.11  
Snow  
Snow 0.00 in - - ()
Month to date snowfall 0.0  
Since 1 July snowfall 0.0  
Snow Depth 0.00 in    
Sea Level Pressure  
Sea Level Pressure 30.12 in    
Wind  
Wind Speed 8 mph (SSE)    
Max Wind Speed 21 mph    
Max Gust Speed 28 mph    
Visibility 10 miles    
Events      
T = Trace of Precipitation, MM = Missing Value Source: NWS Daily Summary

Daily Weather History Graph

Daily Weather History Graph

Search for Another Location

Airport:

Trip Planner

Search our weather history database for the weather conditions in past years. The results will help you decide how hot, cold, wet, or windy it might be!

Date:

Astronomy

Jan. 01, 2013 Rise Set
Actual Time 7:09 AM EST 5:39 PM EST
Civil Twilight 6:43 AM EST 6:04 PM EST
Nautical Twilight 6:14 AM EST 6:33 PM EST
Astronomical Twilight 5:46 AM EST 7:01 PM EST
Moon 9:42 PM EST (1/1) 9:44 AM EST (1/1)
Length of Visible Light 11h 20m
Length of Day
10h 30m
Waning Gibbous, 83% of the Moon is Illuminated
Jan 1
Waning Gibbous
Jan 4
Last Quarter
Jan 11
New
Jan 18
First Quarter
Jan 26
Full

Hourly Weather History & Observations

Time (EST) Temp. Dew Point Humidity Pressure Visibility Wind Dir Wind Speed Gust Speed Precip Events Conditions
12:11 AM 71.6 °F 60.8 °F 69% 30.20 in 10.0 mi SSE 9.2 mph - N/A   Overcast
12:53 AM 71.1 °F 57.0 °F 61% 30.19 in 10.0 mi SSE 6.9 mph - N/A   Mostly Cloudy
1:53 AM 71.1 °F 57.9 °F 63% 30.18 in 10.0 mi SSE 5.8 mph - N/A   Mostly Cloudy
2:53 AM 69.1 °F 55.9 °F 63% 30.18 in 10.0 mi South 3.5 mph - N/A   Scattered Clouds
3:53 AM 64.0 °F 55.0 °F 73% 30.18 in 10.0 mi Calm Calm - N/A   Partly Cloudy
4:53 AM 64.0 °F 57.0 °F 78% 30.15 in 10.0 mi Calm Calm - N/A   Mostly Cloudy
5:53 AM 62.1 °F 55.9 °F 80% 30.15 in 10.0 mi Calm Calm - N/A   Mostly Cloudy
6:53 AM 70.0 °F 59.0 °F 68% 30.14 in 10.0 mi SSE 5.8 mph - N/A   Mostly Cloudy
7:53 AM 72.0 °F 57.9 °F 61% 30.15 in 10.0 mi SSE 9.2 mph - N/A   Mostly Cloudy
8:53 AM 73.9 °F 57.0 °F 55% 30.16 in 10.0 mi SE 12.7 mph 21.9 mph N/A   Scattered Clouds
9:53 AM 75.9 °F 57.0 °F 52% 30.16 in 10.0 mi SSE 16.1 mph 21.9 mph N/A   Scattered Clouds
10:53 AM 77.0 °F 57.9 °F 52% 30.15 in 10.0 mi SSE 17.3 mph 27.6 mph N/A   Scattered Clouds
11:53 AM 77.0 °F 59.0 °F 54% 30.13 in 10.0 mi SSE 15.0 mph 25.3 mph N/A   Mostly Cloudy
12:53 PM 78.1 °F 59.0 °F 52% 30.10 in 10.0 mi SSE 15.0 mph - N/A   Mostly Cloudy
1:53 PM 79.0 °F 59.0 °F 50% 30.07 in 10.0 mi SSE 13.8 mph - N/A   Mostly Cloudy
2:53 PM 77.0 °F 59.0 °F 54% 30.07 in 10.0 mi South 13.8 mph - N/A   Mostly Cloudy
3:53 PM 77.0 °F 59.0 °F 54% 30.06 in 10.0 mi South 11.5 mph - N/A   Mostly Cloudy
4:53 PM 75.9 °F 59.0 °F 56% 30.06 in 10.0 mi SSE 10.4 mph - N/A   Mostly Cloudy
5:53 PM 75.0 °F 60.1 °F 60% 30.06 in 10.0 mi SE 8.1 mph - N/A   Mostly Cloudy
6:53 PM 73.9 °F 61.0 °F 64% 30.07 in 10.0 mi South 4.6 mph - N/A   Mostly Cloudy
7:53 PM 73.9 °F 57.9 °F 57% 30.07 in 10.0 mi South 4.6 mph - N/A   Overcast
8:53 PM 73.0 °F 59.0 °F 61% 30.08 in 10.0 mi Calm Calm - N/A   Scattered Clouds
9:53 PM 71.1 °F 59.0 °F 66% 30.09 in 10.0 mi SSW 3.5 mph - N/A   Scattered Clouds
10:53 PM 69.1 °F 59.0 °F 70% 30.07 in 10.0 mi SE 5.8 mph - N/A   Partly Cloudy
11:53 PM 69.1 °F 59.0 °F 70% 30.06 in 10.0 mi South 5.8 mph - N/A   Partly Cloudy